Hourly Weather Roundup
Issued by NWS Central Illinois

Home | Current Version | Previous Version | Text Only | Print | Product List | Glossary On
Versions: 1 2 3 4 5 6 7 8 9 10 11 12 13 14 15 16 17 18 19 20 21 22 23 24 25 26 27 28 29 30 31 32 33 34 35 36 37 38 39 40 41 42 43 44 45 46 47 48 49 50
000
NZUS43 KILX 110810
HWRILX

AREA WEATHER ROUNDUP
NATIONAL WEATHER SERVICE, LINCOLN IL
200 AM CST SUN DEC 11 2016


CITY           SKY/WX    TMP DP  RH WIND       PRES   REMARKS
BLOOMINGTON    CLOUDY    27  22  81 SE14      30.15F WCI  16
CHAMPAIGN      CLOUDY    29  20  69 SE15      30.18F WCI  18
DANVILLE       CLOUDY    27  22  81 SE10      30.19F WCI  17
DECATUR        CLOUDY    32  19  58 S15G25    30.17F WCI  22
EFFINGHAM      CLOUDY    32  23  68 SE10      30.23S WCI  24
FLORA          CLOUDY    34  22  60 SE7       30.24S WCI  28
GALESBURG      CLOUDY    29  23  78 SE9       30.06F WCI  20
JACKSONVILLE   CLOUDY    33  20  58 S10       30.10F WCI  25
LACON          CLOUDY    27  23  84 SE8       30.13F WCI  19
LAWRENCEVILLE  CLOUDY    32  21  64 SE8       30.27F WCI  25
LITCHFIELD     CLOUDY    33  21  61 S16       30.13F WCI  22
$$


CITY           SKY/WX    TMP DP  RH WIND       PRES   REMARKS
LINCOLN        CLOUDY    32  22  66 S9        30.15R WCI  24
MACOMB         CLOUDY    32  22  67 S13       30.08F WCI  22
MATTOON        CLOUDY    30  18  60 S12       30.19F WCI  20
MT CARMEL AP   CLOUDY    32  22  66 SE6       30.26F WCI  26
OLNEY-NOBLE AP CLOUDY    32  23  69 SE7       30.25S WCI  26
PARIS          CLOUDY    29  22  74 SE14      30.24S WCI  18
PEORIA         CLOUDY    30  22  72 S12       30.12F WCI  20
PONTIAC        CLOUDY    28  26  93 SE15      30.18S WCI  16
RANTOUL        CLOUDY    29  24  81 SE12      30.19F WCI  19
SPRINGFIELD    CLOUDY    34  20  56 S14       30.13F WCI  25
TAYLORVILLE    CLOUDY    33  19  57 S16       30.14F WCI  22
$$

...REGIONAL REPORTS...


CITY           SKY/WX    TMP DP  RH WIND       PRES   REMARKS
CHICAGO O`HARE LGT SNOW  24  21  88 SE12      30.20F FOG     WCI  13
KANKAKEE       LGT SNOW  26  23  89 SE12      30.21F WCI  15
MOLINE         CLOUDY    27  21  78 E8        30.08F WCI  19
MOUNT STERLING CLOUDY    32  19  58 SE9       30.06F WCI  24
MOUNT VERNON   NOT AVBL
PITTSFIELD     CLOUDY    35  19  51 S15       30.08F WCI  25
QUINCY         CLOUDY    34  16  47 S12       30.03F WCI  25
ROCKFORD       LGT SNOW  24  21  88 SE10      30.19F FOG     WCI  14
$$


CITY           SKY/WX    TMP DP  RH WIND       PRES   REMARKS
BURLINGTON     CLOUDY    31  22  69 S10       30.03F WCI  22
CEDAR RAPIDS   CLOUDY    23  23 100 E12       30.03F WCI  12
DES MOINES     CLOUDY    29  21  72 E9        29.93F WCI  20
KIRKSVILLE     CLOUDY    33  19  56 SE12      29.98F WCI  24
OTTUMWA        CLOUDY    31  19  61 SE10      29.97F WCI  22
ST LOUIS       CLOUDY    38  17  42 SE10      30.13F WCI  31
$$


CITY           SKY/WX    TMP DP  RH WIND       PRES   REMARKS
TERRE HAUTE    CLOUDY    30  17  58 SE10      30.27S WCI  21
EVANSVILLE     CLOUDY    34  18  52 S6        30.28F WCI  29
INDIANAPOLIS   CLOUDY    28  19  69 SE10      30.26F WCI  19
LAFAYETTE      LGT SNOW  25  24  96 SE6       30.26F FOG     WCI  18
MADISON        LGT SNOW  20  18  92 SE9       30.16F FOG     WCI   9
MILWAUKEE      LGT SNOW  24  20  84 S8        30.23F FOG     WCI  15
$$






USA.gov is the U.S. government's official web portal to all federal, state and local government web resources and services.